Year,Month,Day,Hour,Minute,Value (Times are PST for windspeed in km/hr)
2010,05,04,00,00,14.40
2010,05,04,00,01,14.10
2010,05,04,00,02,18.80
2010,05,04,00,03,15.30
2010,05,04,00,04,14.00
2010,05,04,00,05,9.00
2010,05,04,00,06,16.00
2010,05,04,00,07,13.00
2010,05,04,00,08,12.10
2010,05,04,00,09,7.70
2010,05,04,00,10,9.70
2010,05,04,00,11,19.20
2010,05,04,00,12,13.00
2010,05,04,00,13,20.20
2010,05,04,00,14,16.20
2010,05,04,00,15,10.30
2010,05,04,00,16,9.10
2010,05,04,00,17,19.90
2010,05,04,00,18,19.60
2010,05,04,00,19,17.50
2010,05,04,00,20,10.60
2010,05,04,00,21,14.70
2010,05,04,00,22,21.30
2010,05,04,00,23,19.80
2010,05,04,00,24,22.80
2010,05,04,00,25,19.20
2010,05,04,00,26,12.80
2010,05,04,00,27,16.00
2010,05,04,00,28,14.60
2010,05,04,00,29,13.70
2010,05,04,00,30,6.10
2010,05,04,00,31,13.60
2010,05,04,00,32,16.30
2010,05,04,00,33,16.20
2010,05,04,00,34,12.50
2010,05,04,00,35,12.50
2010,05,04,00,36,14.60
2010,05,04,00,37,18.70
2010,05,04,00,38,18.60
2010,05,04,00,39,14.20
2010,05,04,00,40,13.00
2010,05,04,00,41,11.00
2010,05,04,00,42,15.80
2010,05,04,00,43,17.10
2010,05,04,00,44,11.50
2010,05,04,00,45,11.00
2010,05,04,00,46,15.60
2010,05,04,00,47,20.00
2010,05,04,00,48,13.30
2010,05,04,00,49,12.30
2010,05,04,00,50,14.40
2010,05,04,00,51,9.80
2010,05,04,00,52,13.70
2010,05,04,00,53,16.10
2010,05,04,00,54,13.00
2010,05,04,00,55,17.20
2010,05,04,00,56,17.80
2010,05,04,00,57,21.10
2010,05,04,00,58,12.50
2010,05,04,00,59,10.20
2010,05,04,01,00,7.00
2010,05,04,01,01,5.40
2010,05,04,01,02,5.20
2010,05,04,01,03,13.50
2010,05,04,01,04,13.50
2010,05,04,01,05,11.10
2010,05,04,01,06,13.00
2010,05,04,01,07,15.00
2010,05,04,01,08,13.00
2010,05,04,01,09,11.90
2010,05,04,01,10,14.10
2010,05,04,01,11,16.30
2010,05,04,01,12,14.70
2010,05,04,01,13,11.30
2010,05,04,01,14,9.80
2010,05,04,01,15,7.90
2010,05,04,01,16,7.80
2010,05,04,01,17,15.90
2010,05,04,01,18,18.60
2010,05,04,01,19,14.50
2010,05,04,01,20,8.20
2010,05,04,01,21,8.20
2010,05,04,01,22,9.30
2010,05,04,01,23,8.10
2010,05,04,01,24,8.50
2010,05,04,01,25,7.80
2010,05,04,01,26,7.70
2010,05,04,01,27,5.40
2010,05,04,01,28,6.30
2010,05,04,01,29,7.20
2010,05,04,01,30,11.60
2010,05,04,01,31,12.90
2010,05,04,01,32,8.00
2010,05,04,01,33,5.30
2010,05,04,01,34,6.80
2010,05,04,01,35,8.10
2010,05,04,01,36,10.70
2010,05,04,01,37,7.00
2010,05,04,01,38,4.70
2010,05,04,01,39,4.30
2010,05,04,01,40,11.40
2010,05,04,01,41,9.70
2010,05,04,01,42,5.30
2010,05,04,01,43,9.90
2010,05,04,01,44,8.60
2010,05,04,01,45,5.20
2010,05,04,01,46,5.80
2010,05,04,01,47,5.50
2010,05,04,01,48,4.00
2010,05,04,01,49,4.20
2010,05,04,01,50,5.50
2010,05,04,01,51,7.10
2010,05,04,01,52,6.10
2010,05,04,01,53,6.00
2010,05,04,01,54,4.60
2010,05,04,01,55,7.00
2010,05,04,01,56,4.00
2010,05,04,01,57,5.30
2010,05,04,01,58,10.80
2010,05,04,01,59,7.70
2010,05,04,02,00,4.40
2010,05,04,02,01,2.30
2010,05,04,02,02,4.80
2010,05,04,02,03,7.00
2010,05,04,02,04,8.30
2010,05,04,02,05,6.50
2010,05,04,02,06,4.90
2010,05,04,02,07,8.90
2010,05,04,02,08,5.50
2010,05,04,02,09,5.70
2010,05,04,02,10,6.20
2010,05,04,02,11,7.60
2010,05,04,02,12,7.40
2010,05,04,02,13,7.30
2010,05,04,02,14,9.20
2010,05,04,02,15,8.40
2010,05,04,02,16,10.50
2010,05,04,02,17,11.30
2010,05,04,02,18,12.00
2010,05,04,02,19,9.00
2010,05,04,02,20,13.50
2010,05,04,02,21,8.90
2010,05,04,02,22,7.50
2010,05,04,02,23,9.30
2010,05,04,02,24,4.30
2010,05,04,02,25,3.50
2010,05,04,02,26,4.40
2010,05,04,02,27,3.40
2010,05,04,02,28,0.90
2010,05,04,02,29,2.90
2010,05,04,02,30,3.00
2010,05,04,02,31,4.70
2010,05,04,02,32,9.90
2010,05,04,02,33,10.80
2010,05,04,02,34,7.60
2010,05,04,02,35,7.20
2010,05,04,02,36,5.40
2010,05,04,02,37,8.00
2010,05,04,02,38,6.80
2010,05,04,02,39,7.20
2010,05,04,02,40,6.80
2010,05,04,02,41,6.60
2010,05,04,02,42,6.50
2010,05,04,02,43,7.80
2010,05,04,02,44,10.20
2010,05,04,02,45,3.00
2010,05,04,02,46,7.30
2010,05,04,02,47,8.60
2010,05,04,02,48,5.60
2010,05,04,02,49,6.70
2010,05,04,02,50,13.50
2010,05,04,02,51,9.70
2010,05,04,02,52,10.40
2010,05,04,02,53,7.70
2010,05,04,02,54,4.60
2010,05,04,02,55,4.10
2010,05,04,02,56,5.90
2010,05,04,02,57,10.30
2010,05,04,02,58,11.30
2010,05,04,02,59,10.90
2010,05,04,03,00,5.00
2010,05,04,03,01,2.00
2010,05,04,03,02,3.90
2010,05,04,03,03,3.60
2010,05,04,03,04,2.00
2010,05,04,03,05,3.20
2010,05,04,03,06,3.80
2010,05,04,03,07,4.60
2010,05,04,03,08,3.90
2010,05,04,03,09,4.60
2010,05,04,03,10,5.40
2010,05,04,03,11,5.60
2010,05,04,03,12,8.20
2010,05,04,03,13,5.80
2010,05,04,03,14,3.50
2010,05,04,03,15,5.60
2010,05,04,03,16,5.00
2010,05,04,03,17,6.50
2010,05,04,03,18,5.60
2010,05,04,03,19,7.10
2010,05,04,03,20,3.10
2010,05,04,03,21,2.10
2010,05,04,03,22,4.70
2010,05,04,03,23,3.10
2010,05,04,03,24,3.10
2010,05,04,03,25,6.40
2010,05,04,03,26,8.00
2010,05,04,03,27,6.00
2010,05,04,03,28,4.20
2010,05,04,03,29,6.80
2010,05,04,03,30,8.90
2010,05,04,03,31,4.80
2010,05,04,03,32,2.70
2010,05,04,03,33,2.90
2010,05,04,03,34,2.60
2010,05,04,03,35,4.30
2010,05,04,03,36,2.70
2010,05,04,03,37,8.20
2010,05,04,03,38,7.40
2010,05,04,03,39,3.80
2010,05,04,03,40,3.50
2010,05,04,03,41,7.00
2010,05,04,03,42,8.90
2010,05,04,03,43,9.70
2010,05,04,03,44,11.00
2010,05,04,03,45,8.00
2010,05,04,03,46,11.90
2010,05,04,03,47,10.50
2010,05,04,03,48,7.20
2010,05,04,03,49,5.40
2010,05,04,03,50,5.60
2010,05,04,03,51,6.80
2010,05,04,03,52,10.60
2010,05,04,03,53,7.20
2010,05,04,03,54,3.50
2010,05,04,03,55,6.40
2010,05,04,03,56,5.10
2010,05,04,03,57,5.40
2010,05,04,03,58,6.80
2010,05,04,03,59,5.10
2010,05,04,04,00,6.30
2010,05,04,04,01,5.40
2010,05,04,04,02,8.40
2010,05,04,04,03,6.50
2010,05,04,04,04,8.30
2010,05,04,04,05,6.80
2010,05,04,04,06,4.80
2010,05,04,04,07,3.70
2010,05,04,04,08,8.40
2010,05,04,04,09,7.80
2010,05,04,04,10,5.80
2010,05,04,04,11,6.10
2010,05,04,04,12,3.80
2010,05,04,04,13,3.90
2010,05,04,04,14,10.20
2010,05,04,04,15,10.30
2010,05,04,04,16,5.80
2010,05,04,04,17,4.40
2010,05,04,04,18,3.60
2010,05,04,04,19,7.00
2010,05,04,04,20,2.50
2010,05,04,04,21,5.70
2010,05,04,04,22,4.40
2010,05,04,04,23,2.10
2010,05,04,04,24,2.90
2010,05,04,04,25,4.80
2010,05,04,04,26,2.80
2010,05,04,04,27,1.00
2010,05,04,04,28,6.50
2010,05,04,04,29,5.20
2010,05,04,04,30,9.80
2010,05,04,04,31,7.80
2010,05,04,04,32,8.10
2010,05,04,04,33,8.30
2010,05,04,04,34,8.90
2010,05,04,04,35,5.00
2010,05,04,04,36,5.00
2010,05,04,04,37,3.80
2010,05,04,04,38,8.00
2010,05,04,04,39,10.30
2010,05,04,04,40,6.40
2010,05,04,04,41,6.20
2010,05,04,04,42,8.10
2010,05,04,04,43,8.60
2010,05,04,04,44,6.70
2010,05,04,04,45,5.10
2010,05,04,04,46,5.30
2010,05,04,04,47,7.40
2010,05,04,04,48,3.60
2010,05,04,04,49,3.10
2010,05,04,04,50,5.50
2010,05,04,04,51,6.80
2010,05,04,04,52,6.50
2010,05,04,04,53,12.80
2010,05,04,04,54,7.90
2010,05,04,04,55,8.10
2010,05,04,04,56,8.30
2010,05,04,04,57,8.50
2010,05,04,04,58,7.20
2010,05,04,04,59,5.30
2010,05,04,05,00,12.10
2010,05,04,05,01,9.20
2010,05,04,05,02,7.70
2010,05,04,05,03,6.70
2010,05,04,05,04,9.00
2010,05,04,05,05,9.20
2010,05,04,05,06,8.80
2010,05,04,05,07,9.70
2010,05,04,05,08,5.80
2010,05,04,05,09,5.60
2010,05,04,05,10,7.70
2010,05,04,05,11,6.10
2010,05,04,05,12,8.60
2010,05,04,05,13,6.10
2010,05,04,05,14,5.60
2010,05,04,05,15,4.30
2010,05,04,05,16,3.20
2010,05,04,05,17,6.50
2010,05,04,05,18,6.10
2010,05,04,05,19,4.90
2010,05,04,05,20,4.40
2010,05,04,05,21,5.10
2010,05,04,05,22,3.90
2010,05,04,05,23,7.00
2010,05,04,05,24,5.20
2010,05,04,05,25,4.30
2010,05,04,05,26,6.30
2010,05,04,05,27,6.30
2010,05,04,05,28,7.00
2010,05,04,05,29,6.70
2010,05,04,05,30,6.00
2010,05,04,05,31,4.70
2010,05,04,05,32,4.30
2010,05,04,05,33,4.10
2010,05,04,05,34,4.00
2010,05,04,05,35,7.90
2010,05,04,05,36,6.70
2010,05,04,05,37,5.10
2010,05,04,05,38,4.00
2010,05,04,05,39,2.70
2010,05,04,05,40,7.80
2010,05,04,05,41,5.20
2010,05,04,05,42,9.00
2010,05,04,05,43,4.60
2010,05,04,05,44,4.70
2010,05,04,05,45,7.60
2010,05,04,05,46,6.70
2010,05,04,05,47,6.40
2010,05,04,05,48,5.80
2010,05,04,05,49,9.00
2010,05,04,05,50,8.20
2010,05,04,05,51,6.80
2010,05,04,05,52,10.80
2010,05,04,05,53,8.20
2010,05,04,05,54,9.80
2010,05,04,05,55,10.30
2010,05,04,05,56,9.00
2010,05,04,05,57,10.30
2010,05,04,05,58,12.90
2010,05,04,05,59,16.40
2010,05,04,06,00,13.30
2010,05,04,06,01,9.20
2010,05,04,06,02,8.50
2010,05,04,06,03,7.30
2010,05,04,06,04,12.30
2010,05,04,06,05,12.80
2010,05,04,06,06,10.70
2010,05,04,06,07,10.70
2010,05,04,06,08,13.60
2010,05,04,06,09,9.20
2010,05,04,06,10,9.40
2010,05,04,06,11,7.10
2010,05,04,06,12,6.00
2010,05,04,06,13,4.70
2010,05,04,06,14,6.60
2010,05,04,06,15,8.00
2010,05,04,06,16,4.40
2010,05,04,06,17,8.70
2010,05,04,06,18,7.20
2010,05,04,06,19,6.50
2010,05,04,06,20,6.00
2010,05,04,06,21,3.00
2010,05,04,06,22,3.90
2010,05,04,06,23,7.70
2010,05,04,06,24,6.10
2010,05,04,06,25,5.30
2010,05,04,06,26,5.20
2010,05,04,06,27,2.80
2010,05,04,06,28,2.90
2010,05,04,06,29,3.00
2010,05,04,06,30,3.10
2010,05,04,06,31,6.60
2010,05,04,06,32,4.00
2010,05,04,06,33,4.10
2010,05,04,06,34,2.30
2010,05,04,06,35,2.50
2010,05,04,06,36,4.10
2010,05,04,06,37,4.30
2010,05,04,06,38,3.20
2010,05,04,06,39,3.70
2010,05,04,06,40,5.90
2010,05,04,06,41,4.70
2010,05,04,06,42,5.50
2010,05,04,06,43,3.90
2010,05,04,06,44,3.70
2010,05,04,06,45,3.10
2010,05,04,06,46,5.00
2010,05,04,06,47,6.80
2010,05,04,06,48,3.90
2010,05,04,06,49,6.10
2010,05,04,06,50,5.40
2010,05,04,06,51,7.60
2010,05,04,06,52,5.90
2010,05,04,06,53,4.70
2010,05,04,06,54,7.00
2010,05,04,06,55,4.90
2010,05,04,06,56,6.80
2010,05,04,06,57,5.40
2010,05,04,06,58,3.50
2010,05,04,06,59,3.90
2010,05,04,07,00,3.50
2010,05,04,07,01,2.80
2010,05,04,07,02,3.90
2010,05,04,07,03,3.70
2010,05,04,07,04,6.80
2010,05,04,07,05,6.90
2010,05,04,07,06,6.10
2010,05,04,07,07,8.70
2010,05,04,07,08,8.20
2010,05,04,07,09,7.70
2010,05,04,07,10,5.90
2010,05,04,07,11,4.70
2010,05,04,07,12,9.50
2010,05,04,07,13,7.60
2010,05,04,07,14,2.80
2010,05,04,07,15,1.50
2010,05,04,07,16,9.00
2010,05,04,07,17,9.10
2010,05,04,07,18,7.60
2010,05,04,07,19,8.40
2010,05,04,07,20,6.10
2010,05,04,07,21,5.60
2010,05,04,07,22,5.20
2010,05,04,07,23,5.20
2010,05,04,07,24,4.80
2010,05,04,07,25,6.90
2010,05,04,07,26,2.70
2010,05,04,07,27,6.70
2010,05,04,07,28,4.00
2010,05,04,07,29,1.20
2010,05,04,07,30,3.40
2010,05,04,07,31,3.50
2010,05,04,07,32,0.60
2010,05,04,07,33,6.80
2010,05,04,07,34,8.20
2010,05,04,07,35,14.30
2010,05,04,07,36,8.70
2010,05,04,07,37,6.90
2010,05,04,07,38,8.70
2010,05,04,07,39,9.40
2010,05,04,07,40,6.80
2010,05,04,07,41,7.50
2010,05,04,07,42,6.30
2010,05,04,07,43,3.90
2010,05,04,07,44,5.10
2010,05,04,07,45,5.80
2010,05,04,07,46,6.10
2010,05,04,07,47,8.80
2010,05,04,07,48,13.80
2010,05,04,07,49,8.30
2010,05,04,07,50,6.40
2010,05,04,07,51,5.10
2010,05,04,07,52,5.80
2010,05,04,07,53,9.60
2010,05,04,07,54,8.90
2010,05,04,07,55,10.60
2010,05,04,07,56,8.60
2010,05,04,07,57,16.10
2010,05,04,07,58,14.70
2010,05,04,07,59,16.10
2010,05,04,08,00,16.50
2010,05,04,08,01,15.40
2010,05,04,08,02,11.80
2010,05,04,08,03,17.40
2010,05,04,08,04,13.30
2010,05,04,08,05,11.70
2010,05,04,08,06,9.20
2010,05,04,08,07,11.10
2010,05,04,08,08,13.50
2010,05,04,08,09,11.70
2010,05,04,08,10,10.50
2010,05,04,08,11,10.60
2010,05,04,08,12,19.20
2010,05,04,08,13,20.00
2010,05,04,08,14,17.10
2010,05,04,08,15,13.20
2010,05,04,08,16,16.20
2010,05,04,08,17,14.60
2010,05,04,08,18,17.80
2010,05,04,08,19,15.80
2010,05,04,08,20,17.60
2010,05,04,08,21,14.90
2010,05,04,08,22,15.20
2010,05,04,08,23,16.20
2010,05,04,08,24,9.50
2010,05,04,08,25,8.50
2010,05,04,08,26,11.20
2010,05,04,08,27,8.80
2010,05,04,08,28,6.30
2010,05,04,08,29,11.40
2010,05,04,08,30,9.80
2010,05,04,08,31,11.70
2010,05,04,08,32,11.60
2010,05,04,08,33,6.80
2010,05,04,08,34,8.50
2010,05,04,08,35,13.40
2010,05,04,08,36,12.80
2010,05,04,08,37,14.40
2010,05,04,08,38,15.70
2010,05,04,08,39,15.70
2010,05,04,08,40,13.50
2010,05,04,08,41,10.80
2010,05,04,08,42,11.20
2010,05,04,08,43,14.60
2010,05,04,08,44,9.70
2010,05,04,08,45,13.10
2010,05,04,08,46,13.60
2010,05,04,08,47,11.30
2010,05,04,08,48,11.40
2010,05,04,08,49,7.60
2010,05,04,08,50,8.00
2010,05,04,08,51,11.00
2010,05,04,08,52,9.90
2010,05,04,08,53,8.90
2010,05,04,08,54,16.60
2010,05,04,08,55,15.30
2010,05,04,08,56,14.50
2010,05,04,08,57,12.80
2010,05,04,08,58,11.90
2010,05,04,08,59,17.10
2010,05,04,09,00,14.10
2010,05,04,09,01,18.60
2010,05,04,09,02,12.10
2010,05,04,09,03,16.80
2010,05,04,09,04,18.30
2010,05,04,09,05,16.90
2010,05,04,09,06,13.20
2010,05,04,09,07,15.00
2010,05,04,09,08,15.40
2010,05,04,09,09,21.20
2010,05,04,09,10,21.70
2010,05,04,09,11,23.60
2010,05,04,09,12,22.80
2010,05,04,09,13,16.70
2010,05,04,09,14,14.90
2010,05,04,09,15,19.20
2010,05,04,09,16,22.00
2010,05,04,09,17,19.90
2010,05,04,09,18,21.30
2010,05,04,09,19,18.80
2010,05,04,09,20,20.20
2010,05,04,09,21,18.10
2010,05,04,09,22,22.20
2010,05,04,09,23,21.20
2010,05,04,09,24,19.50
2010,05,04,09,25,20.60
2010,05,04,09,26,22.40
2010,05,04,09,27,18.00
2010,05,04,09,28,17.30
2010,05,04,09,29,26.00
2010,05,04,09,30,24.40
2010,05,04,09,31,22.40
2010,05,04,09,32,20.60
2010,05,04,09,33,19.50
2010,05,04,09,34,15.10
2010,05,04,09,35,15.60
2010,05,04,09,36,19.50
2010,05,04,09,37,17.20
2010,05,04,09,38,17.40
2010,05,04,09,39,20.30
2010,05,04,09,40,17.60
2010,05,04,09,41,20.80
2010,05,04,09,42,13.70
2010,05,04,09,43,14.60
2010,05,04,09,44,14.40
2010,05,04,09,45,15.80
2010,05,04,09,46,15.20
2010,05,04,09,47,16.80
2010,05,04,09,48,17.90
2010,05,04,09,49,18.70
2010,05,04,09,50,15.40
2010,05,04,09,51,20.40
2010,05,04,09,52,14.50
2010,05,04,09,53,14.40
2010,05,04,09,54,16.30
2010,05,04,09,55,18.10
2010,05,04,09,56,14.50
2010,05,04,09,57,11.00
2010,05,04,09,58,16.90
2010,05,04,09,59,19.00
2010,05,04,10,00,14.80
2010,05,04,10,01,18.90
2010,05,04,10,02,16.90
2010,05,04,10,03,17.40
2010,05,04,10,04,14.60
2010,05,04,10,05,20.50
2010,05,04,10,06,20.10
2010,05,04,10,07,13.40
2010,05,04,10,08,14.70
2010,05,04,10,09,22.70
2010,05,04,10,10,21.60
2010,05,04,10,11,20.10
2010,05,04,10,12,16.50
2010,05,04,10,13,18.00
2010,05,04,10,14,20.60
2010,05,04,10,15,16.00
2010,05,04,10,16,19.30
2010,05,04,10,17,14.90
2010,05,04,10,18,17.00
2010,05,04,10,19,15.90
2010,05,04,10,20,22.10
2010,05,04,10,21,14.70
2010,05,04,10,22,22.00
2010,05,04,10,23,18.70
2010,05,04,10,24,14.60
2010,05,04,10,25,14.50
2010,05,04,10,26,22.60
2010,05,04,10,27,18.10
2010,05,04,10,28,18.40
2010,05,04,10,29,20.60
2010,05,04,10,30,14.10
2010,05,04,10,31,17.20
2010,05,04,10,32,19.50
2010,05,04,10,33,22.70
2010,05,04,10,34,17.30
2010,05,04,10,35,13.00
2010,05,04,10,36,13.60
2010,05,04,10,37,19.60
2010,05,04,10,38,25.80
2010,05,04,10,39,19.10
2010,05,04,10,40,16.10
2010,05,04,10,41,14.00
2010,05,04,10,42,19.90
2010,05,04,10,43,16.10
2010,05,04,10,44,14.20
2010,05,04,10,45,15.70
2010,05,04,10,46,15.60
2010,05,04,10,47,11.90
2010,05,04,10,48,13.90
2010,05,04,10,49,19.70
2010,05,04,10,50,13.10
2010,05,04,10,51,19.20
2010,05,04,10,52,21.10
2010,05,04,10,53,27.60
2010,05,04,10,54,21.80
2010,05,04,10,55,20.70
2010,05,04,10,56,18.50
2010,05,04,10,57,15.50
2010,05,04,10,58,22.50
2010,05,04,10,59,21.80
2010,05,04,11,00,17.30
2010,05,04,11,01,13.20
2010,05,04,11,02,7.80
2010,05,04,11,03,11.70
2010,05,04,11,04,9.10
2010,05,04,11,05,12.50
2010,05,04,11,06,11.00
2010,05,04,11,07,13.70
2010,05,04,11,08,15.80
2010,05,04,11,09,13.30
2010,05,04,11,10,11.90
2010,05,04,11,11,9.00
2010,05,04,11,12,14.90
2010,05,04,11,13,9.00
2010,05,04,11,14,6.70
2010,05,04,11,15,10.50
2010,05,04,11,16,11.80
2010,05,04,11,17,15.90
2010,05,04,11,18,19.10
2010,05,04,11,19,18.70
2010,05,04,11,20,15.50
2010,05,04,11,21,18.30
2010,05,04,11,22,13.60
2010,05,04,11,23,14.40
2010,05,04,11,24,20.70
2010,05,04,11,25,8.90
2010,05,04,11,26,12.80
2010,05,04,11,27,14.70
2010,05,04,11,28,10.90
2010,05,04,11,29,8.00
2010,05,04,11,30,6.80
2010,05,04,11,31,12.20
2010,05,04,11,32,17.00
2010,05,04,11,33,10.10
2010,05,04,11,34,9.90
2010,05,04,11,35,17.70
2010,05,04,11,36,20.10
2010,05,04,11,37,17.30
2010,05,04,11,38,12.90
2010,05,04,11,39,15.90
2010,05,04,11,40,22.00
2010,05,04,11,41,17.50
2010,05,04,11,42,17.10
2010,05,04,11,43,12.10
2010,05,04,11,44,9.90
2010,05,04,11,45,12.80
2010,05,04,11,46,13.10
2010,05,04,11,47,16.40
2010,05,04,11,48,12.10
2010,05,04,11,49,10.10
2010,05,04,11,50,14.00
2010,05,04,11,51,10.50
2010,05,04,11,52,15.50
2010,05,04,11,53,12.40
2010,05,04,11,54,20.40
2010,05,04,11,55,12.40
2010,05,04,11,56,12.80
2010,05,04,11,57,12.60
2010,05,04,11,58,19.50
2010,05,04,11,59,16.70
2010,05,04,12,00,11.00
2010,05,04,12,01,18.60
2010,05,04,12,02,19.20
2010,05,04,12,03,14.60
2010,05,04,12,04,11.00
2010,05,04,12,05,12.50
2010,05,04,12,06,19.60
2010,05,04,12,07,17.60
2010,05,04,12,08,14.70
2010,05,04,12,09,13.50
2010,05,04,12,10,13.00
2010,05,04,12,11,17.00
2010,05,04,12,12,11.20
2010,05,04,12,13,12.00
2010,05,04,12,14,19.20
2010,05,04,12,15,13.30
2010,05,04,12,16,15.40
2010,05,04,12,17,13.90
2010,05,04,12,18,17.00
2010,05,04,12,19,19.90
2010,05,04,12,20,21.30
2010,05,04,12,21,17.10
2010,05,04,12,22,18.50
2010,05,04,12,23,14.30
2010,05,04,12,24,10.40
2010,05,04,12,25,18.50
2010,05,04,12,26,17.50
2010,05,04,12,27,13.40
2010,05,04,12,28,19.90
2010,05,04,12,29,14.80
2010,05,04,12,30,11.70
2010,05,04,12,31,14.30
2010,05,04,12,32,13.30
2010,05,04,12,33,16.70
2010,05,04,12,34,14.90
2010,05,04,12,35,15.80
2010,05,04,12,36,11.90
2010,05,04,12,37,15.00
2010,05,04,12,38,15.10
2010,05,04,12,39,10.50
2010,05,04,12,40,8.40
2010,05,04,12,41,12.70
2010,05,04,12,42,13.30
2010,05,04,12,43,9.60
2010,05,04,12,44,14.30
2010,05,04,12,45,16.40
2010,05,04,12,46,18.60
2010,05,04,12,47,15.00
2010,05,04,12,48,8.20
2010,05,04,12,49,9.00
2010,05,04,12,50,12.20
2010,05,04,12,51,12.90
2010,05,04,12,52,10.70
2010,05,04,12,53,12.00
2010,05,04,12,54,12.60
2010,05,04,12,55,12.80
2010,05,04,12,56,12.00
2010,05,04,12,57,13.40
2010,05,04,12,58,10.70
2010,05,04,12,59,19.00
2010,05,04,13,00,15.30
2010,05,04,13,01,11.70
2010,05,04,13,02,14.40
2010,05,04,13,03,21.20
2010,05,04,13,04,19.00
2010,05,04,13,05,19.10
2010,05,04,13,06,16.70
2010,05,04,13,07,17.60
2010,05,04,13,08,15.70
2010,05,04,13,09,11.90
2010,05,04,13,10,15.70
2010,05,04,13,11,10.60
2010,05,04,13,12,18.20
2010,05,04,13,13,20.30
2010,05,04,13,14,19.60
2010,05,04,13,15,15.20
2010,05,04,13,16,19.10
2010,05,04,13,17,16.00
2010,05,04,13,18,21.20
2010,05,04,13,19,16.40
2010,05,04,13,20,15.20
2010,05,04,13,21,12.40
2010,05,04,13,22,16.80
2010,05,04,13,23,17.10
2010,05,04,13,24,14.00
2010,05,04,13,25,10.60
2010,05,04,13,26,12.70
2010,05,04,13,27,12.80
2010,05,04,13,28,20.80
2010,05,04,13,29,22.30
2010,05,04,13,30,18.10
2010,05,04,13,31,19.30
2010,05,04,13,32,18.20
2010,05,04,13,33,12.80
2010,05,04,13,34,15.10
2010,05,04,13,35,10.90
2010,05,04,13,36,9.30
2010,05,04,13,37,10.00
2010,05,04,13,38,17.50
2010,05,04,13,39,17.40
2010,05,04,13,40,17.80
2010,05,04,13,41,12.40
2010,05,04,13,42,10.10
2010,05,04,13,43,10.40
2010,05,04,13,44,8.00
2010,05,04,13,45,10.60
2010,05,04,13,46,7.40
2010,05,04,13,47,10.30
2010,05,04,13,48,12.90
2010,05,04,13,49,14.90
2010,05,04,13,50,8.10
2010,05,04,13,51,8.10
2010,05,04,13,52,8.10
2010,05,04,13,53,11.50
2010,05,04,13,54,17.50
2010,05,04,13,55,17.30
2010,05,04,13,56,8.30
2010,05,04,13,57,9.60
2010,05,04,13,58,16.70
2010,05,04,13,59,13.00
2010,05,04,14,00,9.70
2010,05,04,14,01,11.70
2010,05,04,14,02,21.10
2010,05,04,14,03,19.90
2010,05,04,14,04,15.90
2010,05,04,14,05,17.30
2010,05,04,14,06,11.20
2010,05,04,14,07,14.90
2010,05,04,14,08,12.50
2010,05,04,14,09,18.10
2010,05,04,14,10,13.90
2010,05,04,14,11,14.80
2010,05,04,14,12,14.10
2010,05,04,14,13,19.50
2010,05,04,14,14,16.90
2010,05,04,14,15,16.40
2010,05,04,14,16,18.80
2010,05,04,14,17,13.80
2010,05,04,14,18,11.70
2010,05,04,14,19,8.80
2010,05,04,14,20,15.40
2010,05,04,14,21,18.30
2010,05,04,14,22,22.50
2010,05,04,14,23,14.20
2010,05,04,14,24,16.00
2010,05,04,14,25,12.20
2010,05,04,14,26,15.80
2010,05,04,14,27,16.50
2010,05,04,14,28,10.10
2010,05,04,14,29,11.10
2010,05,04,14,30,9.00
2010,05,04,14,31,6.90
2010,05,04,14,32,10.10
2010,05,04,14,33,11.00
2010,05,04,14,34,13.90
2010,05,04,14,35,16.50
2010,05,04,14,36,17.50
2010,05,04,14,37,18.00
2010,05,04,14,38,19.70
2010,05,04,14,39,20.60
2010,05,04,14,40,15.90
2010,05,04,14,41,16.10
2010,05,04,14,42,14.10
2010,05,04,14,43,14.90
2010,05,04,14,44,13.90
2010,05,04,14,45,11.90
2010,05,04,14,46,18.30
2010,05,04,14,47,20.00
2010,05,04,14,48,16.90
2010,05,04,14,49,16.90
2010,05,04,14,50,13.50
2010,05,04,14,51,18.00
2010,05,04,14,52,17.10
2010,05,04,14,53,14.70
2010,05,04,14,54,11.90
2010,05,04,14,55,13.70
2010,05,04,14,56,16.80
2010,05,04,14,57,11.90
2010,05,04,14,58,16.10
2010,05,04,14,59,17.00
2010,05,04,15,00,10.00
2010,05,04,15,01,9.60
2010,05,04,15,02,15.20
2010,05,04,15,03,15.40
2010,05,04,15,04,17.10
2010,05,04,15,05,19.80
2010,05,04,15,06,14.60
2010,05,04,15,07,16.20
2010,05,04,15,08,8.00
2010,05,04,15,09,14.50
2010,05,04,15,10,16.80
2010,05,04,15,11,18.90
2010,05,04,15,12,14.50
2010,05,04,15,13,16.30
2010,05,04,15,14,14.30
2010,05,04,15,15,11.90
2010,05,04,15,16,15.50
2010,05,04,15,17,13.50
2010,05,04,15,18,16.10
2010,05,04,15,19,22.00
2010,05,04,15,20,17.60
2010,05,04,15,21,16.30
2010,05,04,15,22,15.40
2010,05,04,15,23,22.00
2010,05,04,15,24,18.80
2010,05,04,15,25,20.80
2010,05,04,15,26,17.00
2010,05,04,15,27,15.80
2010,05,04,15,28,13.90
2010,05,04,15,29,16.40
2010,05,04,15,30,19.40
2010,05,04,15,31,20.40
2010,05,04,15,32,22.90
2010,05,04,15,33,11.80
2010,05,04,15,34,17.10
2010,05,04,15,35,20.70
2010,05,04,15,36,17.90
2010,05,04,15,37,20.20
2010,05,04,15,38,15.40
2010,05,04,15,39,18.70
2010,05,04,15,40,16.40
2010,05,04,15,41,21.20
2010,05,04,15,42,17.90
2010,05,04,15,43,19.50
2010,05,04,15,44,18.80
2010,05,04,15,45,15.70
2010,05,04,15,46,16.10
2010,05,04,15,47,18.00
2010,05,04,15,48,17.90
2010,05,04,15,49,16.80
2010,05,04,15,50,21.50
2010,05,04,15,51,20.00
2010,05,04,15,52,17.40
2010,05,04,15,53,20.80
2010,05,04,15,54,19.70
2010,05,04,15,55,21.10
2010,05,04,15,56,20.70
2010,05,04,15,57,18.50
2010,05,04,15,58,22.10
2010,05,04,15,59,16.20
2010,05,04,16,00,18.50
2010,05,04,16,01,18.80
2010,05,04,16,02,18.20
2010,05,04,16,03,20.30
2010,05,04,16,04,19.60
2010,05,04,16,05,18.30
2010,05,04,16,06,15.50
2010,05,04,16,07,19.20
2010,05,04,16,08,25.20
2010,05,04,16,09,15.70
2010,05,04,16,10,5.20
2010,05,04,16,11,7.80
2010,05,04,16,12,11.00
2010,05,04,16,13,9.40
2010,05,04,16,14,11.00
2010,05,04,16,15,6.10
2010,05,04,16,16,6.70
2010,05,04,16,17,15.80
2010,05,04,16,18,17.60
2010,05,04,16,19,12.50
2010,05,04,16,20,9.10
2010,05,04,16,21,11.20
2010,05,04,16,22,13.70
2010,05,04,16,23,12.60
2010,05,04,16,24,8.20
2010,05,04,16,25,9.70
2010,05,04,16,26,11.00
2010,05,04,16,27,9.70
2010,05,04,16,28,15.00
2010,05,04,16,29,15.30
2010,05,04,16,30,16.80
2010,05,04,16,31,11.40
2010,05,04,16,32,9.10
2010,05,04,16,33,15.70
2010,05,04,16,34,10.10
2010,05,04,16,35,10.70
2010,05,04,16,36,8.00
2010,05,04,16,37,8.50
2010,05,04,16,38,6.00
2010,05,04,16,39,11.10
2010,05,04,16,40,9.70
2010,05,04,16,41,9.20
2010,05,04,16,42,12.30
2010,05,04,16,43,13.60
2010,05,04,16,44,9.30
2010,05,04,16,45,8.20
2010,05,04,16,46,10.20
2010,05,04,16,47,12.90
2010,05,04,16,48,6.20
2010,05,04,16,49,10.50
2010,05,04,16,50,11.30
2010,05,04,16,51,8.30
2010,05,04,16,52,7.20
2010,05,04,16,53,10.30
2010,05,04,16,54,12.00
2010,05,04,16,55,8.70
2010,05,04,16,56,15.20
2010,05,04,16,57,10.90
2010,05,04,16,58,9.40
2010,05,04,16,59,9.80
2010,05,04,17,00,6.80
2010,05,04,17,01,6.80
2010,05,04,17,02,10.40
2010,05,04,17,03,12.00
2010,05,04,17,04,10.60
2010,05,04,17,05,9.20
2010,05,04,17,06,2.30
2010,05,04,17,07,2.10
2010,05,04,17,08,7.70
2010,05,04,17,09,9.80
2010,05,04,17,10,6.50
2010,05,04,17,11,5.50
2010,05,04,17,12,5.10
2010,05,04,17,13,7.20
2010,05,04,17,14,11.70
2010,05,04,17,15,12.90
2010,05,04,17,16,8.00
2010,05,04,17,17,9.10
2010,05,04,17,18,8.20
2010,05,04,17,19,9.60
2010,05,04,17,20,9.70
2010,05,04,17,21,7.60
2010,05,04,17,22,10.50
2010,05,04,17,23,10.60
2010,05,04,17,24,6.70
2010,05,04,17,25,5.60
2010,05,04,17,26,7.40
2010,05,04,17,27,9.30
2010,05,04,17,28,7.10
2010,05,04,17,29,1.10
2010,05,04,17,30,0.40
2010,05,04,17,31,3.00
2010,05,04,17,32,6.30
2010,05,04,17,33,5.20
2010,05,04,17,34,2.70
2010,05,04,17,35,0.70
2010,05,04,17,36,3.00
2010,05,04,17,37,0.40
2010,05,04,17,38,1.30
2010,05,04,17,39,1.10